Current weather by "City, St" or "zip code"  
 

Current Conditions: Bogalusa, George R Carr Memorial Air Field, LA

Fair


58.0 F

Last Updated on Oct 29 2020, 6:55 pm CDT
Humidity: 65%
Wind Speed: NW 5.8 mph
Barometer 29.97 in
Dewpoint: 46.2 F
Visibility: 10.00 mi
Precip: --
Heat Index: NA
Wind Chill: 57 F
Current conditions at:

Bogalusa, George R Carr Memorial Air Field, LA (KBXA)

Lat: 30.81361 Lon: 89.86472

Local Radar Image active severe weather and emergency alerts image image weather storm and storm spotter reports image weather observation monitoring service image
Local
Radar
Active
Alerts
Storm Reports Obs
Monitoring

Sign-up For Email & Text Message Weather Alert Notification Services



Advertise Here

Observation History for Bogalusa, George R Carr Memorial Air Field, LA


Time Wind
(mph)
Vis
(mi)
Weather Precip (in) Temperature (F) Relative
Humidity
Wind
Chill
(F)
Heat
Index
(F)
Pressure
Air Dwpt altimeter
(in)
sea level
(mb)
Rmks
6:55 pm CDT NW 5.8 10.00 Fair -- 58.0 46.2 65% 57 NA 29.97 M
5:55 pm CDT NW 8.1 10.00 Fair -- 63.0 45.9 53% 63 NA 29.94 M
4:55 pm CDT W 9.2 10.00 Fair -- 66.0 45.3 47% NA NA 29.91 M
3:55 pm CDT NW 10.4 10.00 Fair -- 67.0 45.7 46% NA NA 29.90 M
2:55 pm CDT NW 15.0 G 20.7 10.00 Fair -- 67.0 45.5 47% NA NA 29.89 M
1:55 pm CDT W 10.4 G 16.1 10.00 Fair -- 66.0 45.1 47% NA NA 29.90 M
12:55 pm CDT W 19.6 G 25.3 10.00 Fair -- 63.0 43.7 50% 61 NA 29.94 M
11:55 am CDT W 12.7 G 19.6 10.00 Fair -- 63.0 45.1 53% 62 NA 29.94 M
10:55 am CDT W 11.5 G 20.7 10.00 Fair -- 60.0 43.3 55% 58 NA 29.95 M
9:55 am CDT W 9.2 G 18.4 10.00 Fair -- 58.0 43.7 59% 56 NA 29.95 M
8:55 am CDT NW 15.0 G 20.7 10.00 Fair -- 58.0 45.7 64% 55 NA 29.92 M
7:55 am CDT W 9.2 G 20.7 10.00 Partly Cloudy -- 58.0 51.8 80% 56 NA 29.88 M
6:55 am CDT W 8.1 G 21.9 10.00 Overcast -- 62.0 57.2 84% 61 NA 29.85 M
5:55 am CDT W 11.5 G 20.7 4.00 Overcast -- 65.0 61.7 88% NA NA 29.81 M
4:55 am CDT W 11.5 G 17.3 10.00 Overcast -- 69.0 64.4 87% NA NA 29.78 M
3:55 am CDT W 6.9 10.00 Overcast -- 71.0 67.1 88% NA NA 29.76 M
2:55 am CDT W 4.6 10.00 Overcast -- 71.0 67.1 86% NA NA 29.74 M
1:15 am CDT W 6.9 7.00 Overcast -- 76.0 72.1 89% NA NA 29.72 M
12:55 am CDT SW 9.2 2.50 Overcast -- 76.0 72.0 88% NA NA 29.71 M
11:55 pm CDT W 6.9 10.00 Overcast -- 76.0 70.9 85% NA NA 29.68 M
10:55 pm CDT W 10.4 G 18.4 10.00 Overcast -- 75.0 70.3 86% NA NA 29.63 M
9:55 pm CDT W 13.8 G 24.2 10.00 Overcast -- 76.0 71.2 86% NA NA 29.53 M
8:55 pm CDT NW 24.2 G 35.7 10.00 Overcast and Breezy 00.29 76.0 72.5 90% NA NA 29.34 M
7:55 pm CDT N 20.7 G 34.5 1.75 Overcast and Breezy -- 75.0 72.0 90% NA NA 29.29 M

Regional Weather Observation


McComb, McComb / Pike County / John E Lewis Field Airport, MS (KMCB)

Fair
55.0 F

Hammond, Hammond Municipal Airport, LA (KHDC)

Fair
55.0 F

Brookhaven-Lincoln County Airport, MS (K1R7)

Mostly Cloudy
52.0 F

Hattiesburg, Bobby L Chain Municipal Airport, MS (KHBG)

Fair
58.0 F

Hattiesburg/Laurel, Hattiesburg-Laurel Regional Airport, MS (KPIB)

Fair
55.0 F

Bay St. Louis, Stennis International Airport, MS (KHSA)

Fair
59.0 F